timestamp,wind_dir_avg,wind_spd_max_dir,wind_spd_avg,wind_spd_gust,battery_voltage,lat,long
2018-04-17 00:00:00+00:00,335.0,327.0,5.37,6.48,,47.59359,-54.27349
2018-04-17 00:10:00+00:00,334.0,336.0,5.05,5.75,,47.59359,-54.27349
2018-04-17 00:20:00+00:00,335.0,336.0,4.56,5.14,,47.59359,-54.27349
2018-04-17 00:30:00+00:00,324.0,323.0,4.84,5.24,,47.59359,-54.27349
2018-04-17 00:40:00+00:00,344.0,343.0,5.05,5.85,,47.59359,-54.27349
2018-04-17 00:50:00+00:00,341.0,342.0,5.78,6.72,,47.59359,-54.27349
2018-04-17 01:00:00+00:00,336.0,338.0,5.62,6.31,,47.59359,-54.27349
2018-04-17 01:10:00+00:00,330.0,330.0,5.38,6.6,,47.59359,-54.27349
2018-04-17 01:20:00+00:00,344.0,341.0,6.8,7.54,,47.59359,-54.27349
2018-04-17 01:30:00+00:00,339.0,337.0,6.32,7.61,,47.59359,-54.27349
2018-04-17 01:40:00+00:00,340.0,341.0,5.84,6.68,,47.59359,-54.27349
2018-04-17 01:50:00+00:00,339.0,338.0,7.0,7.58,,47.59359,-54.27349
2018-04-17 02:00:00+00:00,341.0,335.0,6.34,7.1,,47.59359,-54.27349
2018-04-17 02:10:00+00:00,348.0,350.0,7.0,7.73,,47.59359,-54.27349
2018-04-17 02:20:00+00:00,347.0,345.0,6.91,7.87,,47.59359,-54.27349
2018-04-17 02:30:00+00:00,354.0,354.0,8.01,9.19,,47.59359,-54.27349
2018-04-17 02:40:00+00:00,4.0,1.0,7.48,8.41,,47.59359,-54.27349
2018-04-17 02:50:00+00:00,7.0,8.0,7.92,8.62,,47.59359,-54.27349
2018-04-17 03:00:00+00:00,15.0,19.0,8.92,10.41,,47.59359,-54.27349
2018-04-17 03:10:00+00:00,13.0,11.0,6.59,7.59,,47.59359,-54.27349
2018-04-17 03:20:00+00:00,19.0,20.0,5.9,6.82,,47.59359,-54.27349
2018-04-17 03:30:00+00:00,22.0,25.0,5.71,7.13,,47.59359,-54.27349
2018-04-17 03:40:00+00:00,15.0,15.0,7.48,8.36,,47.59359,-54.27349
2018-04-17 03:50:00+00:00,16.0,16.0,7.05,7.82,,47.59359,-54.27349
2018-04-17 04:00:00+00:00,30.0,33.0,5.32,6.56,,47.59359,-54.27349
2018-04-17 04:10:00+00:00,21.0,19.0,3.59,4.89,,47.59359,-54.27349
2018-04-17 04:20:00+00:00,344.0,340.0,2.21,2.99,,47.59359,-54.27349
2018-04-17 04:30:00+00:00,333.0,338.0,2.41,2.82,,47.59359,-54.27349
2018-04-17 04:40:00+00:00,301.0,306.0,3.72,4.61,,47.59359,-54.27349
2018-04-17 04:50:00+00:00,336.0,341.0,0.63,1.04,,47.59359,-54.27349
2018-04-17 05:00:00+00:00,339.0,343.0,0.94,1.18,,47.59359,-54.27349
2018-04-17 05:10:00+00:00,312.0,305.0,1.34,1.67,,47.59359,-54.27349
2018-04-17 05:20:00+00:00,275.0,274.0,3.12,3.58,,47.59359,-54.27349
2018-04-17 05:30:00+00:00,316.0,323.0,3.57,4.36,,47.59359,-54.27349
2018-04-17 05:40:00+00:00,319.0,322.0,4.7,5.21,,47.59359,-54.27349
2018-04-17 05:50:00+00:00,318.0,312.0,4.58,4.98,,47.59359,-54.27349
2018-04-17 06:00:00+00:00,317.0,317.0,5.2,5.61,,47.59359,-54.27349
2018-04-17 06:10:00+00:00,321.0,321.0,5.86,6.33,,47.59359,-54.27349
2018-04-17 06:20:00+00:00,304.0,308.0,5.45,6.17,,47.59359,-54.27349
2018-04-17 06:30:00+00:00,294.0,297.0,5.01,5.45,,47.59359,-54.27349
2018-04-17 06:40:00+00:00,297.0,303.0,4.22,4.87,,47.59359,-54.27349
2018-04-17 06:50:00+00:00,285.0,284.0,4.82,5.86,,47.59359,-54.27349
2018-04-17 07:00:00+00:00,332.0,334.0,2.84,3.42,,47.59359,-54.27349
2018-04-17 07:10:00+00:00,334.0,345.0,3.22,3.74,,47.59359,-54.27349
2018-04-17 07:20:00+00:00,340.0,340.0,3.54,3.94,,47.59359,-54.27349
2018-04-17 07:30:00+00:00,303.0,290.0,1.2,1.64,,47.59359,-54.27349
2018-04-17 07:40:00+00:00,259.0,258.0,1.92,2.21,,47.59359,-54.27349
2018-04-17 07:50:00+00:00,309.0,299.0,1.57,2.3,,47.59359,-54.27349
2018-04-17 08:00:00+00:00,291.0,291.0,3.03,3.54,,47.59359,-54.27349
2018-04-17 08:10:00+00:00,286.0,282.0,4.31,5.02,,47.59359,-54.27349
2018-04-17 08:20:00+00:00,291.0,294.0,2.76,3.12,,47.59359,-54.27349
2018-04-17 08:30:00+00:00,309.0,307.0,2.65,3.13,,47.59359,-54.27349
2018-04-17 08:40:00+00:00,315.0,320.0,2.15,2.43,,47.59359,-54.27349
2018-04-17 08:50:00+00:00,310.0,304.0,3.06,3.55,,47.59359,-54.27349
2018-04-17 09:00:00+00:00,323.0,324.0,2.98,3.34,,47.59359,-54.27349
2018-04-17 09:10:00+00:00,302.0,299.0,2.65,3.24,,47.59359,-54.27349
2018-04-17 09:20:00+00:00,313.0,312.0,2.01,2.66,,47.59359,-54.27349
2018-04-17 09:30:00+00:00,339.0,344.0,1.74,2.34,,47.59359,-54.27349
2018-04-17 09:40:00+00:00,5.0,5.0,3.28,3.76,,47.59359,-54.27349
2018-04-17 09:50:00+00:00,341.0,327.0,2.85,3.29,,47.59359,-54.27349
2018-04-17 10:00:00+00:00,43.0,43.0,1.33,1.58,,47.59359,-54.27349
2018-04-17 10:10:00+00:00,36.0,36.0,1.71,2.11,,47.59359,-54.27349
2018-04-17 10:20:00+00:00,21.0,18.0,1.85,2.08,,47.59359,-54.27349
2018-04-17 10:30:00+00:00,339.0,334.0,1.89,2.18,,47.59359,-54.27349
2018-04-17 10:40:00+00:00,275.0,286.0,0.39,0.58,,47.59359,-54.27349
2018-04-17 10:50:00+00:00,180.0,175.0,0.61,0.75,,47.59359,-54.27349
2018-04-17 11:00:00+00:00,164.0,170.0,1.46,1.89,,47.59359,-54.27349
2018-04-17 11:10:00+00:00,204.0,189.0,1.84,2.34,,47.59359,-54.27349
2018-04-17 11:20:00+00:00,233.0,232.0,1.42,1.73,,47.59359,-54.27349
2018-04-17 11:30:00+00:00,224.0,226.0,1.5,1.97,,47.59359,-54.27349
2018-04-17 11:40:00+00:00,252.0,248.0,1.32,1.54,,47.59359,-54.27349
2018-04-17 11:50:00+00:00,224.0,226.0,1.69,1.92,,47.59359,-54.27349
2018-04-17 12:00:00+00:00,192.0,188.0,2.87,3.16,,47.59359,-54.27349
2018-04-17 12:10:00+00:00,180.0,171.0,1.71,2.04,,47.59359,-54.27349
2018-04-17 12:20:00+00:00,194.0,194.0,2.32,2.8,,47.59359,-54.27349
2018-04-17 12:30:00+00:00,194.0,198.0,3.14,3.59,,47.59359,-54.27349
2018-04-17 12:40:00+00:00,193.0,193.0,3.28,3.6,,47.59359,-54.27349
2018-04-17 12:50:00+00:00,194.0,195.0,3.12,3.38,,47.59359,-54.27349
2018-04-17 13:00:00+00:00,189.0,191.0,2.85,3.07,,47.59359,-54.27349
2018-04-17 13:10:00+00:00,168.0,171.0,2.56,2.76,,47.59359,-54.27349
2018-04-17 13:20:00+00:00,174.0,171.0,2.56,2.8,,47.59359,-54.27349
2018-04-17 13:30:00+00:00,185.0,186.0,2.43,2.61,,47.59359,-54.27349
2018-04-17 13:40:00+00:00,184.0,184.0,1.88,2.01,,47.59359,-54.27349
2018-04-17 13:50:00+00:00,200.0,206.0,1.89,2.05,,47.59359,-54.27349
2018-04-17 14:00:00+00:00,220.0,223.0,2.8,3.03,,47.59359,-54.27349
2018-04-17 14:10:00+00:00,226.0,228.0,2.95,3.13,,47.59359,-54.27349
2018-04-17 14:20:00+00:00,230.0,229.0,3.94,4.25,,47.59359,-54.27349
2018-04-17 14:30:00+00:00,224.0,226.0,4.81,5.19,,47.59359,-54.27349
2018-04-17 14:40:00+00:00,221.0,220.0,5.13,5.69,,47.59359,-54.27349
2018-04-17 14:50:00+00:00,227.0,231.0,5.17,5.65,,47.59359,-54.27349
2018-04-17 15:00:00+00:00,226.0,225.0,5.04,5.57,,47.59359,-54.27349
2018-04-17 15:10:00+00:00,229.0,227.0,5.3,5.91,,47.59359,-54.27349
2018-04-17 15:20:00+00:00,227.0,224.0,5.31,5.89,,47.59359,-54.27349
2018-04-17 15:30:00+00:00,227.0,228.0,5.85,6.26,,47.59359,-54.27349
2018-04-17 15:40:00+00:00,231.0,230.0,6.28,7.05,,47.59359,-54.27349
2018-04-17 15:50:00+00:00,230.0,231.0,5.35,6.11,,47.59359,-54.27349
2018-04-17 16:00:00+00:00,231.0,235.0,6.24,6.81,,47.59359,-54.27349
2018-04-17 16:10:00+00:00,230.0,235.0,5.78,7.43,,47.59359,-54.27349
2018-04-17 16:20:00+00:00,225.0,225.0,6.85,7.44,,47.59359,-54.27349
2018-04-17 16:30:00+00:00,222.0,224.0,7.26,7.94,,47.59359,-54.27349
2018-04-17 16:40:00+00:00,230.0,235.0,7.42,8.35,,47.59359,-54.27349
2018-04-17 16:50:00+00:00,230.0,231.0,6.62,7.27,,47.59359,-54.27349
2018-04-17 17:00:00+00:00,231.0,229.0,7.27,7.97,,47.59359,-54.27349
2018-04-17 17:10:00+00:00,234.0,237.0,7.53,8.61,,47.59359,-54.27349
2018-04-17 17:20:00+00:00,235.0,239.0,8.43,9.42,,47.59359,-54.27349
2018-04-17 17:30:00+00:00,236.0,235.0,8.11,8.88,,47.59359,-54.27349
2018-04-17 17:40:00+00:00,243.0,243.0,7.95,8.83,,47.59359,-54.27349
2018-04-17 17:50:00+00:00,241.0,242.0,8.03,9.16,,47.59359,-54.27349
2018-04-17 18:00:00+00:00,233.0,233.0,8.01,8.88,,47.59359,-54.27349
2018-04-17 18:10:00+00:00,231.0,230.0,7.39,8.28,,47.59359,-54.27349
2018-04-17 18:20:00+00:00,230.0,226.0,8.1,8.98,,47.59359,-54.27349
2018-04-17 18:30:00+00:00,233.0,239.0,7.43,8.38,,47.59359,-54.27349
2018-04-17 18:40:00+00:00,234.0,233.0,8.02,9.29,,47.59359,-54.27349
2018-04-17 18:50:00+00:00,230.0,229.0,6.14,6.61,,47.59359,-54.27349
2018-04-17 19:00:00+00:00,226.0,226.0,7.25,8.28,,47.59359,-54.27349
2018-04-17 19:10:00+00:00,234.0,232.0,7.96,9.21,,47.59359,-54.27349
2018-04-17 19:20:00+00:00,235.0,234.0,7.34,8.36,,47.59359,-54.27349
2018-04-17 19:30:00+00:00,234.0,231.0,8.03,9.29,,47.59359,-54.27349
2018-04-17 19:40:00+00:00,233.0,233.0,9.27,10.54,,47.59359,-54.27349
2018-04-17 19:50:00+00:00,232.0,237.0,8.68,9.99,,47.59359,-54.27349
2018-04-17 20:00:00+00:00,235.0,235.0,7.81,8.71,,47.59359,-54.27349
2018-04-17 20:10:00+00:00,233.0,234.0,7.83,9.0,,47.59359,-54.27349
2018-04-17 20:20:00+00:00,233.0,233.0,6.69,7.48,,47.59359,-54.27349
2018-04-17 20:30:00+00:00,230.0,231.0,6.38,6.96,,47.59359,-54.27349
2018-04-17 20:40:00+00:00,227.0,228.0,5.29,5.82,,47.59359,-54.27349
2018-04-17 20:50:00+00:00,230.0,231.0,4.05,4.58,,47.59359,-54.27349
2018-04-17 21:00:00+00:00,227.0,229.0,4.62,5.27,,47.59359,-54.27349
2018-04-17 21:10:00+00:00,233.0,237.0,3.16,3.39,,47.59359,-54.27349
2018-04-17 21:20:00+00:00,229.0,231.0,4.19,4.66,,47.59359,-54.27349
2018-04-17 21:30:00+00:00,207.0,208.0,3.65,3.93,,47.59359,-54.27349
2018-04-17 21:40:00+00:00,182.0,185.0,4.15,4.46,,47.59359,-54.27349
2018-04-17 21:50:00+00:00,189.0,190.0,3.56,3.91,,47.59359,-54.27349
2018-04-17 22:00:00+00:00,202.0,203.0,3.22,3.49,,47.59359,-54.27349
2018-04-17 22:10:00+00:00,191.0,195.0,3.17,3.39,,47.59359,-54.27349
2018-04-17 22:20:00+00:00,159.0,160.0,1.37,1.58,,47.59359,-54.27349
2018-04-17 22:30:00+00:00,139.0,140.0,1.38,1.64,,47.59359,-54.27349
2018-04-17 22:40:00+00:00,142.0,147.0,2.79,3.18,,47.59359,-54.27349
2018-04-17 22:50:00+00:00,132.0,134.0,3.15,3.48,,47.59359,-54.27349
2018-04-17 23:00:00+00:00,111.0,127.0,1.46,1.89,,47.59359,-54.27349
2018-04-17 23:10:00+00:00,116.0,111.0,2.2,3.1,,47.59359,-54.27349
2018-04-17 23:20:00+00:00,151.0,155.0,3.5,3.75,,47.59359,-54.27349
2018-04-17 23:30:00+00:00,202.0,202.0,2.02,2.19,,47.59359,-54.27349
2018-04-17 23:40:00+00:00,169.0,169.0,1.05,1.31,,47.59359,-54.27349
2018-04-17 23:50:00+00:00,129.0,136.0,1.97,2.88,,47.59359,-54.27349
